Darstellungsparameter: Aktuell verwendete Einstellungen:
Skalierung der Graphiken ... ?
xyx+y,   Skalierungsfaktor:      Skalierung: Modus: x, Faktor: 1
Darstellungszeitraum ... ?
Vom - - bis: - -   Zeitraum: 19.05.2022 - 20.05.2022
Min/Max/Avg-Anzeige ... ?
Zeige MMA aktuell
Zeige MMA Monat
Zeige MMA alles
Zeige --A aktuell
Zeige --A Monat
Zeige --A alles
Keine MMA-Anzeige
MMA:
Average (ber die Originaldaten)
MMA-Basis: 19.05.2022 - 20.05.2022
Quicknavigation für Darstellung... ?
Tage:      1T, 2T, 3T, 5T -1T -2T -3T -5T +1T +2T +3T +5T
Wochen: 1W, 2W, 3W -1W -2W -3W +1W +2W +3W
Monate: 1M, 3M, 6M -1M -3M -6M +1M +3M +6M
Jahre:    1J, 3J, 5J, 10J -1J -3J -5J -10J +1J +3J +5J +10J
Nutze für die Darstellung ... ?
Originaldaten oder Mittelwerte auf ...
Stundenbasis Tagesbasis Wochenbasis
Monatsbasis Jahresbasis      Datenbasis: Original-Daten
Darstellen als:
Statistik (Auto) Statistik J:M      Darstellung:

Der gewünschte Datumsbereich war nicht gültig/verfügbar und wurde korrigiert....
Das angegebene Enddatum (30.11.2024 23:59:59) liegt in der Zukunft.
Das angegebene Startdatum (17.11.2024 00:00:00) liegt in der Zukunft.


Zur Graphik,    zurück zur Übersicht aller Sensoren.
 
Tabellarische Datenbersicht: ?
 
Sensor: Nr:Datum:Temp:Abs-Feuchte:Windchill:Wind:
Aussen-T/F 1 19-05-2022 02:00:00 17.2 C 11.72 g/m*3 17.2 C 0 km/h
2 19-05-2022 02:05:00 17 C 11.58 g/m*3 17 C 0 km/h
3 19-05-2022 02:10:00 16.9 C 11.65 g/m*3 16.9 C 0 km/h
4 19-05-2022 02:15:00 16.8 C 11.58 g/m*3 16.8 C 0 km/h
5 19-05-2022 02:20:00 16.7 C 11.51 g/m*3 16.7 C 0 km/h
6 19-05-2022 02:25:00 16.7 C 11.51 g/m*3 16.7 C 0 km/h
7 19-05-2022 02:30:00 16.6 C 11.58 g/m*3 16.6 C 0 km/h
8 19-05-2022 02:35:00 16.5 C 11.51 g/m*3 16.5 C 0 km/h
9 19-05-2022 02:40:00 16.4 C 11.45 g/m*3 16.4 C 0 km/h
10 19-05-2022 02:45:00 16.3 C 11.52 g/m*3 16.3 C 0 km/h
11 19-05-2022 02:50:00 16.2 C 11.45 g/m*3 16.2 C 0 km/h
12 19-05-2022 02:55:00 16.1 C 11.38 g/m*3 16.1 C 0 km/h
13 19-05-2022 03:00:00 16.1 C 11.38 g/m*3 16.1 C 0 km/h
14 19-05-2022 03:05:00 16 C 11.44 g/m*3 16 C 0 km/h
15 19-05-2022 03:10:00 15.9 C 11.38 g/m*3 15.9 C 0 km/h
16 19-05-2022 03:15:00 15.8 C 11.31 g/m*3 15.8 C 0 km/h
17 19-05-2022 03:20:00 15.7 C 11.37 g/m*3 15.7 C 0 km/h
18 19-05-2022 03:25:00 15.7 C 11.37 g/m*3 15.7 C 0 km/h
19 19-05-2022 03:30:00 15.6 C 11.3 g/m*3 15.6 C 0 km/h
20 19-05-2022 03:35:00 15.6 C 11.44 g/m*3 15.6 C 0 km/h
21 19-05-2022 03:40:00 15.4 C 11.3 g/m*3 15.4 C 0 km/h
22 19-05-2022 03:45:00 15.3 C 11.23 g/m*3 15.3 C 0 km/h
23 19-05-2022 03:50:00 15.3 C 11.23 g/m*3 15.3 C 0 km/h
24 19-05-2022 03:55:00 15.2 C 11.29 g/m*3 15.2 C 0 km/h
25 19-05-2022 04:00:00 15.1 C 11.22 g/m*3 15.1 C 0 km/h
Sensor: Nr:Datum:Temp:Abs-Feuchte:Windchill:Wind:
Aussen-T/F 26 19-05-2022 04:05:00 15.1 C 11.22 g/m*3 15.1 C 0 km/h
27 19-05-2022 04:10:00 15.1 C 11.22 g/m*3 15.1 C 0 km/h
28 19-05-2022 04:15:00 15 C 11.16 g/m*3 15 C 0 km/h
29 19-05-2022 04:20:00 14.9 C 11.22 g/m*3 14.9 C 0 km/h
30 19-05-2022 04:25:00 14.9 C 11.22 g/m*3 14.9 C 0 km/h
31 19-05-2022 04:30:00 14.8 C 11.15 g/m*3 14.8 C 3.2 km/h
32 19-05-2022 04:35:00 14.8 C 11.15 g/m*3 14.8 C 0 km/h
33 19-05-2022 04:40:00 14.8 C 11.15 g/m*3 14.8 C 1.6 km/h
34 19-05-2022 04:45:00 14.8 C 11.15 g/m*3 14.8 C 1.6 km/h
35 19-05-2022 04:50:00 14.9 C 11.34 g/m*3 14.9 C 1.6 km/h
36 19-05-2022 04:55:00 14.9 C 11.34 g/m*3 14.9 C 0 km/h
37 19-05-2022 05:00:00 14.9 C 11.34 g/m*3 14.9 C 1.6 km/h
38 19-05-2022 05:05:00 14.9 C 11.22 g/m*3 14.9 C 0 km/h
39 19-05-2022 05:10:00 14.9 C 11.22 g/m*3 14.9 C 0 km/h
40 19-05-2022 05:15:00 14.9 C 11.22 g/m*3 14.9 C 1.6 km/h
41 19-05-2022 05:20:00 14.9 C 11.22 g/m*3 14.9 C 3.2 km/h
42 19-05-2022 05:25:00 14.9 C 11.22 g/m*3 14.9 C 0 km/h
43 19-05-2022 05:30:00 14.8 C 11.15 g/m*3 14.8 C 0 km/h
44 19-05-2022 05:35:00 14.8 C 11.15 g/m*3 14.8 C 0 km/h
45 19-05-2022 05:40:00 14.8 C 11.15 g/m*3 14.8 C 0 km/h
46 19-05-2022 05:45:00 14.7 C 11.08 g/m*3 14.7 C 0 km/h
47 19-05-2022 05:50:00 14.7 C 11.08 g/m*3 14.7 C 0 km/h
48 19-05-2022 05:55:00 14.7 C 11.08 g/m*3 14.7 C 3.2 km/h
49 19-05-2022 06:00:00 14.6 C 11.01 g/m*3 14.6 C 0 km/h
50 19-05-2022 06:05:00 14.6 C 11.01 g/m*3 14.6 C 0 km/h
Sensor: Nr:Datum:Temp:Abs-Feuchte:Windchill:Wind:
Aussen-T/F 51 19-05-2022 06:10:00 14.6 C 11.14 g/m*3 14.6 C 0 km/h
52 19-05-2022 06:15:00 14.5 C 11.07 g/m*3 14.5 C 0 km/h
53 19-05-2022 06:20:00 14.5 C 11.07 g/m*3 14.5 C 0 km/h
54 19-05-2022 06:25:00 14.4 C 11 g/m*3 14.4 C 0 km/h
55 19-05-2022 06:30:00 14.4 C 11 g/m*3 14.4 C 0 km/h
56 19-05-2022 06:35:00 14.4 C 11 g/m*3 14.4 C 0 km/h
57 19-05-2022 06:40:00 14.4 C 11 g/m*3 14.4 C 0 km/h
58 19-05-2022 06:45:00 14.4 C 11.13 g/m*3 14.4 C 0 km/h
59 19-05-2022 06:50:00 14.5 C 11.19 g/m*3 14.5 C 0 km/h
60 19-05-2022 06:55:00 14.5 C 11.19 g/m*3 14.5 C 0 km/h
61 19-05-2022 07:00:00 14.6 C 11.26 g/m*3 14.6 C 0 km/h
62 19-05-2022 07:05:00 14.7 C 11.46 g/m*3 14.7 C 0 km/h
63 19-05-2022 07:10:00 14.8 C 11.53 g/m*3 14.8 C 0 km/h
64 19-05-2022 07:15:00 14.9 C 11.6 g/m*3 14.9 C 0 km/h
65 19-05-2022 07:20:00 15 C 11.67 g/m*3 15 C 0 km/h
66 19-05-2022 07:25:00 15.1 C 11.74 g/m*3 15.1 C 0 km/h
67 19-05-2022 07:30:00 15.2 C 11.81 g/m*3 15.2 C 0 km/h
68 19-05-2022 07:35:00 15.3 C 11.88 g/m*3 15.3 C 0 km/h
69 19-05-2022 07:40:00 15.4 C 11.96 g/m*3 15.4 C 0 km/h
70 19-05-2022 07:45:00 15.6 C 12.1 g/m*3 15.6 C 0 km/h
71 19-05-2022 07:50:00 15.7 C 12.18 g/m*3 15.7 C 0 km/h
72 19-05-2022 07:55:00 15.8 C 12.25 g/m*3 15.8 C 0 km/h
73 19-05-2022 08:00:00 15.9 C 12.32 g/m*3 15.9 C 0 km/h
74 19-05-2022 08:05:00 16.1 C 12.47 g/m*3 16.1 C 1.6 km/h
75 19-05-2022 08:10:00 16.2 C 12.41 g/m*3 16.2 C 0 km/h
Sensor: Nr:Datum:Temp:Abs-Feuchte:Windchill:Wind:
Aussen-T/F 76 19-05-2022 08:15:00 16.3 C 12.49 g/m*3 16.3 C 0 km/h
77 19-05-2022 08:20:00 16.4 C 12.56 g/m*3 16.4 C 0 km/h

Legende:
   Min
   Max


Maximal/Minimal-Werte vom 19.05.2022 - 20.05.2022

Sensor Min Max Avg
Temp
(Aussen-T/F)
14.4 °C
19-05-2022  06:25:00
17.2 °C
19-05-2022  02:00:00
15.34 °C
Abs-Feuchte
(Aussen-T/F)
11 g/m*3
19-05-2022  06:25:00
12.56 g/m*3
19-05-2022  08:20:00
11.28 g/m*3
Windchill
(Aussen-T/F)
14.4 C
19-05-2022  06:25:00
17.2 C
19-05-2022  02:00:00
15.14 C

Die Daten stammen von einer Davis Vantage Pro 2 Wetter-Station und werden unter Linux mit der Software wview2wettercgi und aufbereitet. Alle Angaben erfolgen ohne Gewähr für ihre Vollständigkeit oder Richtigkeit.
Kontakt: Rainer Krienke krienke@uni-koblenz.de . Meine Webseiten an der Uni Koblenz oder privat.
Version: $Revision: 0.78 $